AUA21M LOWW-LOWW

Flight info

Callsign AUA21M
Flight time 1h 6m
Altitude 15000
Route LANUX LANUX7W
Aircraft A20N/M-SDE2E3FGHIRWXY/LB1

Departure

Time 2026-04-22 14:32
Airport Vienna International Airport (LOWW)

Arrival

Time 2026-04-22 15:38
Airport Vienna International Airport (LOWW)
Time Latitude Longitude Altitude Speed Heading
2026-04-22 14:25 48.11336 16.57166 624 ft 26 kts 116°
2026-04-22 14:25 48.11250 16.57432 623 ft 31 kts 116°
2026-04-22 14:25 48.11143 16.57603 620 ft 7 kts 210°
2026-04-22 14:26 48.11148 16.57592 620 ft 1 kts 321°
2026-04-22 14:26 48.11174 16.57600 619 ft 7 kts 36°
2026-04-22 14:26 48.11167 16.57692 622 ft 13 kts 116°
2026-04-22 14:26 48.11074 16.57781 615 ft 20 kts 164°
2026-04-22 14:27 48.10928 16.57844 628 ft 24 kts 165°
2026-04-22 14:27 48.10745 16.57919 623 ft 28 kts 164°
2026-04-22 14:27 48.10542 16.58007 618 ft 33 kts 164°
2026-04-22 14:27 48.10318 16.58103 624 ft 36 kts 162°
2026-04-22 14:28 48.10119 16.58190 619 ft 24 kts 163°
2026-04-22 14:28 48.09938 16.58261 624 ft 29 kts 164°
2026-04-22 14:28 48.09730 16.58350 630 ft 33 kts 164°
2026-04-22 14:28 48.09493 16.58448 625 ft 39 kts 165°
2026-04-22 14:29 48.09261 16.58546 622 ft 23 kts 163°
2026-04-22 14:29 48.09128 16.58610 621 ft 22 kts 168°
2026-04-22 14:29 48.08968 16.58694 618 ft 21 kts 141°
2026-04-22 14:29 48.08922 16.58815 626 ft 11 kts 100°
2026-04-22 14:30 48.08923 16.58887 622 ft 0 kts 78°
2026-04-22 14:30 48.08926 16.58898 634 ft 5 kts 71°
2026-04-22 14:31 48.08979 16.59009 625 ft 17 kts 34°
2026-04-22 14:31 48.09061 16.59045 635 ft 13 kts 353°
2026-04-22 14:31 48.09169 16.59003 623 ft 19 kts 345°
2026-04-22 14:31 48.09322 16.58938 627 ft 34 kts 344°
2026-04-22 14:32 48.09792 16.58738 630 ft 116 kts 344°
2026-04-22 14:32 48.10769 16.58318 1037 ft 159 kts 344°
2026-04-22 14:32 48.11895 16.57840 2073 ft 178 kts 345°
2026-04-22 14:32 48.13133 16.57400 2938 ft 190 kts 353°
2026-04-22 14:33 48.14458 16.57618 3681 ft 197 kts 20°
2026-04-22 14:33 48.15499 16.58978 4438 ft 209 kts 56°
2026-04-22 14:33 48.15872 16.61103 4965 ft 221 kts 90°
2026-04-22 14:33 48.15367 16.63307 5481 ft 229 kts 121°
2026-04-22 14:34 48.14369 16.65188 5873 ft 234 kts 127°
2026-04-22 14:34 48.13320 16.67058 5989 ft 235 kts 127°
2026-04-22 14:34 48.12270 16.68921 5999 ft 234 kts 127°
2026-04-22 14:34 48.11135 16.70681 6002 ft 235 kts 142°
2026-04-22 14:35 48.09664 16.71706 6001 ft 235 kts 164°
2026-04-22 14:35 48.08035 16.72362 5997 ft 252 kts 165°
2026-04-22 14:35 48.06324 16.73060 5807 ft 256 kts 165°
2026-04-22 14:35 48.04636 16.73755 5432 ft 258 kts 164°
2026-04-22 14:36 48.02883 16.74482 5106 ft 257 kts 164°
2026-04-22 14:36 48.01187 16.75187 5008 ft 248 kts 164°
2026-04-22 14:36 47.99495 16.75892 4997 ft 252 kts 164°
2026-04-22 14:36 47.97802 16.76599 4904 ft 252 kts 164°
2026-04-22 14:37 47.96121 16.77298 4556 ft 256 kts 164°
2026-04-22 14:37 47.94390 16.78017 4178 ft 259 kts 164°
2026-04-22 14:37 47.92651 16.78490 3994 ft 249 kts 183°
2026-04-22 14:37 47.91035 16.77788 3779 ft 240 kts 216°
2026-04-22 14:38 47.89944 16.76043 3518 ft 223 kts 249°
2026-04-22 14:38 47.89398 16.73970 3260 ft 214 kts 255°
2026-04-22 14:38 47.89177 16.71873 3041 ft 198 kts 285°
2026-04-22 14:38 47.89731 16.70031 3006 ft 200 kts 304°
2026-04-22 14:39 47.90456 16.68318 3003 ft 191 kts 309°
2026-04-22 14:39 47.91353 16.66996 2997 ft 175 kts 328°
2026-04-22 14:39 47.92387 16.66195 2992 ft 164 kts 339°
2026-04-22 14:40 47.94238 16.65305 3014 ft 169 kts 343°
2026-04-22 14:40 47.95748 16.64663 3001 ft 168 kts 344°
2026-04-22 14:40 47.96866 16.64193 2997 ft 170 kts 343°
2026-04-22 14:40 47.98015 16.63709 2900 ft 170 kts 344°
2026-04-22 14:41 47.99135 16.63237 2653 ft 168 kts 345°
2026-04-22 14:41 48.00252 16.62768 2408 ft 160 kts 345°
2026-04-22 14:41 48.01249 16.62347 2189 ft 138 kts 345°
2026-04-22 14:41 48.02164 16.61962 2016 ft 139 kts 345°
2026-04-22 14:42 48.03082 16.61575 1828 ft 134 kts 345°
2026-04-22 14:42 48.03963 16.61202 1648 ft 126 kts 344°
2026-04-22 14:42 48.04807 16.60846 1473 ft 131 kts 345°
2026-04-22 14:42 48.05678 16.60492 1303 ft 128 kts 345°
2026-04-22 14:43 48.06537 16.60107 1136 ft 127 kts 344°
2026-04-22 14:43 48.07398 16.59748 958 ft 129 kts 346°
2026-04-22 14:43 48.08233 16.59398 777 ft 119 kts 345°
2026-04-22 14:43 48.09014 16.59064 647 ft 114 kts 346°
2026-04-22 14:44 48.09709 16.58769 635 ft 101 kts 347°
2026-04-22 14:44 48.10611 16.58396 999 ft 153 kts 345°
2026-04-22 14:44 48.11668 16.57958 2090 ft 165 kts 345°
2026-04-22 14:44 48.12414 16.57653 2554 ft 165 kts 345°
2026-04-22 14:45 48.13578 16.57178 2901 ft 191 kts 345°
2026-04-22 14:45 48.15317 16.56645 2997 ft 195 kts
2026-04-22 14:45 48.16186 16.57012 3066 ft 195 kts 27°
2026-04-22 14:45 48.17089 16.58543 3437 ft 208 kts 63°
2026-04-22 14:46 48.17250 16.60739 3902 ft 221 kts 96°
2026-04-22 14:46 48.16586 16.62815 4420 ft 226 kts 127°
2026-04-22 14:46 48.15491 16.64586 4853 ft 232 kts 132°
2026-04-22 14:46 48.14338 16.66280 4983 ft 231 kts 133°
2026-04-22 14:47 48.12770 16.68554 5000 ft 246 kts 133°
2026-04-22 14:47 48.11994 16.69693 4996 ft 248 kts 133°
2026-04-22 14:47 48.10543 16.71239 4997 ft 249 kts 155°
2026-04-22 14:47 48.08903 16.71988 4997 ft 250 kts 165°
2026-04-22 14:48 48.07215 16.72676 4988 ft 252 kts 165°
2026-04-22 14:48 48.05511 16.73383 4749 ft 251 kts 164°
2026-04-22 14:48 48.03856 16.74075 4495 ft 250 kts 164°
2026-04-22 14:48 48.02168 16.74781 4238 ft 250 kts 164°
2026-04-22 14:49 48.00502 16.75476 3966 ft 246 kts 164°
2026-04-22 14:49 47.98835 16.76056 3711 ft 245 kts 177°
2026-04-22 14:49 47.97206 16.75587 3460 ft 240 kts 210°
2026-04-22 14:49 47.96005 16.73994 3208 ft 229 kts 243°
2026-04-22 14:50 47.95402 16.71858 3005 ft 219 kts 255°
2026-04-22 14:50 47.94899 16.69778 2991 ft 205 kts 257°
2026-04-22 14:50 47.94824 16.67698 3003 ft 202 kts 291°
2026-04-22 14:50 47.95471 16.65919 2997 ft 192 kts 313°
2026-04-22 14:51 47.96464 16.64714 2999 ft 181 kts 332°
2026-04-22 14:51 47.97573 16.63976 2964 ft 170 kts 341°
2026-04-22 14:51 47.98710 16.63428 2749 ft 173 kts 344°
2026-04-22 14:51 47.99848 16.62940 2516 ft 166 kts 345°
2026-04-22 14:52 48.00929 16.62483 2283 ft 154 kts 345°
2026-04-22 14:52 48.01895 16.62074 2084 ft 133 kts 345°
2026-04-22 14:52 48.02728 16.61731 1907 ft 128 kts 346°
2026-04-22 14:52 48.03584 16.61404 1814 ft 124 kts 346°
2026-04-22 14:53 48.04410 16.61089 1629 ft 122 kts 343°
2026-04-22 14:53 48.05262 16.60693 1410 ft 132 kts 343°
2026-04-22 14:53 48.06110 16.60279 1200 ft 121 kts 344°
2026-04-22 14:53 48.06876 16.59968 1038 ft 115 kts 346°
2026-04-22 14:54 48.07666 16.59646 922 ft 119 kts 345°
2026-04-22 14:54 48.08449 16.59310 752 ft 113 kts 346°
2026-04-22 14:54 48.09179 16.58998 637 ft 104 kts 346°
2026-04-22 14:54 48.09886 16.58694 648 ft 131 kts 347°
2026-04-22 14:55 48.10900 16.58322 1422 ft 153 kts 349°
2026-04-22 14:55 48.11994 16.57938 2506 ft 168 kts 348°
2026-04-22 14:55 48.13119 16.57566 3776 ft 171 kts 354°
2026-04-22 14:55 48.14433 16.57966 4456 ft 222 kts 27°
2026-04-22 14:56 48.15512 16.59613 4824 ft 217 kts 61°
2026-04-22 14:56 48.15792 16.61731 4956 ft 203 kts 91°
2026-04-22 14:56 48.15349 16.63709 5010 ft 218 kts 122°
2026-04-22 14:56 48.14338 16.65550 4999 ft 228 kts 129°
2026-04-22 14:57 48.13282 16.67311 4994 ft 230 kts 130°
2026-04-22 14:57 48.12205 16.69084 4997 ft 230 kts 130°
2026-04-22 14:57 48.11035 16.70753 5003 ft 235 kts 145°
2026-04-22 14:57 48.09510 16.71725 5001 ft 249 kts 165°
2026-04-22 14:58 48.07813 16.72407 5002 ft 252 kts 165°
2026-04-22 14:58 48.06135 16.73092 4890 ft 254 kts 165°
2026-04-22 14:58 48.04439 16.73795 4619 ft 251 kts 164°
2026-04-22 14:58 48.02762 16.74498 4352 ft 249 kts 164°
2026-04-22 14:59 48.01093 16.75201 4112 ft 246 kts 164°
2026-04-22 14:59 47.99459 16.75887 3904 ft 242 kts 164°
2026-04-22 14:59 47.97830 16.76167 3692 ft 238 kts 189°
2026-04-22 14:59 47.96362 16.75228 3437 ft 226 kts 225°
2026-04-22 15:00 47.95508 16.73381 3179 ft 212 kts 253°
2026-04-22 15:00 47.95003 16.71330 3023 ft 211 kts 255°
2026-04-22 15:00 47.94722 16.69261 3002 ft 201 kts 281°
2026-04-22 15:00 47.95204 16.67356 2998 ft 192 kts 304°
2026-04-22 15:01 47.95899 16.65758 2994 ft 176 kts 313°
2026-04-22 15:01 47.96799 16.64606 2993 ft 173 kts 331°
2026-04-22 15:01 47.97885 16.63842 2911 ft 172 kts 340°
2026-04-22 15:01 47.99032 16.63282 2675 ft 175 kts 344°
2026-04-22 15:02 48.00209 16.62789 2417 ft 176 kts 345°
2026-04-22 15:02 48.01372 16.62296 2176 ft 175 kts 345°
2026-04-22 15:02 48.02516 16.61814 1967 ft 160 kts 344°
2026-04-22 15:02 48.03529 16.61385 1736 ft 144 kts 344°
2026-04-22 15:03 48.04490 16.60978 1533 ft 148 kts 344°
2026-04-22 15:03 48.05509 16.60559 1355 ft 147 kts 345°
2026-04-22 15:03 48.06498 16.60124 1187 ft 152 kts 344°
2026-04-22 15:03 48.07417 16.59742 982 ft 124 kts 345°
2026-04-22 15:04 48.08183 16.59411 780 ft 108 kts 346°
2026-04-22 15:04 48.08890 16.59114 671 ft 105 kts 347°
2026-04-22 15:04 48.09588 16.58819 633 ft 96 kts 346°
2026-04-22 15:04 48.10328 16.58506 731 ft 142 kts 345°
2026-04-22 15:05 48.11361 16.58055 1457 ft 162 kts 344°
2026-04-22 15:05 48.12492 16.57592 2384 ft 170 kts 345°
2026-04-22 15:05 48.13667 16.57501 3586 ft 179 kts 12°
2026-04-22 15:05 48.14843 16.58562 4345 ft 217 kts 43°
2026-04-22 15:06 48.15532 16.60500 4718 ft 215 kts 72°
2026-04-22 15:06 48.15474 16.62769 4923 ft 226 kts 105°
2026-04-22 15:06 48.14679 16.64801 4996 ft 228 kts 124°
2026-04-22 15:06 48.13638 16.66698 5003 ft 243 kts 128°
2026-04-22 15:07 48.12533 16.68601 5001 ft 246 kts 128°
2026-04-22 15:07 48.11363 16.70495 5000 ft 249 kts 138°
2026-04-22 15:07 48.09820 16.71687 4999 ft 252 kts 164°
2026-04-22 15:07 48.08121 16.72350 4997 ft 252 kts 164°
2026-04-22 15:08 48.06439 16.73026 4998 ft 254 kts 164°
2026-04-22 15:08 48.04739 16.73727 4999 ft 254 kts 164°
2026-04-22 15:08 48.03039 16.74432 4866 ft 251 kts 164°
2026-04-22 15:08 48.01348 16.75136 4491 ft 252 kts 164°
2026-04-22 15:09 47.99672 16.75832 4148 ft 246 kts 164°
2026-04-22 15:09 47.98057 16.76243 4005 ft 230 kts 186°
2026-04-22 15:09 47.96582 16.75431 3997 ft 225 kts 222°
2026-04-22 15:09 47.95677 16.73680 3931 ft 214 kts 252°
2026-04-22 15:10 47.95149 16.71598 3634 ft 214 kts 255°
2026-04-22 15:10 47.94641 16.69510 3264 ft 214 kts 255°
2026-04-22 15:10 47.94490 16.67402 3038 ft 197 kts 290°
2026-04-22 15:10 47.95156 16.65753 2952 ft 180 kts 319°
2026-04-22 15:11 47.96143 16.64740 2873 ft 169 kts 336°
2026-04-22 15:11 47.97236 16.64088 2797 ft 170 kts 342°
2026-04-22 15:11 47.98367 16.63571 2726 ft 168 kts 345°
2026-04-22 15:11 47.99468 16.63098 2554 ft 157 kts 345°
2026-04-22 15:12 48.00572 16.62635 2334 ft 167 kts 345°
2026-04-22 15:12 48.01684 16.62165 2110 ft 159 kts 345°
2026-04-22 15:12 48.02686 16.61741 1899 ft 140 kts 344°
2026-04-22 15:12 48.03600 16.61355 1719 ft 137 kts 345°
2026-04-22 15:13 48.04486 16.60981 1538 ft 126 kts 345°
2026-04-22 15:13 48.05345 16.60620 1365 ft 133 kts 346°
2026-04-22 15:13 48.06248 16.60242 1156 ft 132 kts 345°
2026-04-22 15:13 48.07098 16.59866 985 ft 124 kts 346°
2026-04-22 15:14 48.07921 16.59532 827 ft 121 kts 347°
2026-04-22 15:14 48.08712 16.59196 693 ft 116 kts 348°
2026-04-22 15:14 48.09460 16.58888 629 ft 104 kts 346°
2026-04-22 15:14 48.10303 16.58506 895 ft 149 kts 354°
2026-04-22 15:15 48.11359 16.58182 1812 ft 162 kts 354°
2026-04-22 15:15 48.12489 16.57833 2571 ft 167 kts 354°
2026-04-22 15:15 48.13632 16.58036 3659 ft 177 kts 28°
2026-04-22 15:15 48.14492 16.59529 4429 ft 209 kts 68°
2026-04-22 15:16 48.14531 16.61756 4752 ft 224 kts 107°
2026-04-22 15:16 48.13801 16.63858 4926 ft 231 kts 123°
2026-04-22 15:16 48.12935 16.65921 4997 ft 241 kts 113°
2026-04-22 15:16 48.12152 16.68164 5001 ft 243 kts 110°
2026-04-22 15:17 48.11393 16.70381 4994 ft 243 kts 120°
2026-04-22 15:17 48.10140 16.72116 4995 ft 249 kts 148°
2026-04-22 15:17 48.08512 16.72991 4999 ft 249 kts 165°
2026-04-22 15:17 48.06800 16.73494 4999 ft 254 kts 168°
2026-04-22 15:18 48.05063 16.73981 4980 ft 254 kts 167°
2026-04-22 15:18 48.03330 16.74546 4730 ft 254 kts 166°
2026-04-22 15:18 48.01629 16.75171 4360 ft 255 kts 164°
2026-04-22 15:18 47.99920 16.75836 4107 ft 252 kts 168°
2026-04-22 15:19 47.98212 16.75742 3973 ft 246 kts 199°
2026-04-22 15:19 47.96776 16.74458 3750 ft 236 kts 231°
2026-04-22 15:19 47.95992 16.72462 3504 ft 219 kts 254°
2026-04-22 15:19 47.95475 16.70374 3244 ft 213 kts 255°
2026-04-22 15:20 47.95142 16.69000 3088 ft 211 kts 255°
2026-04-22 15:20 47.95066 16.66264 2947 ft 199 kts 301°
2026-04-22 15:20 47.95989 16.64893 2855 ft 182 kts 332°
2026-04-22 15:20 47.97101 16.64147 2781 ft 172 kts 342°
2026-04-22 15:21 47.98222 16.63620 2698 ft 165 kts 345°
2026-04-22 15:21 47.99367 16.63142 2558 ft 171 kts 345°
2026-04-22 15:21 48.00457 16.62682 2355 ft 153 kts 345°
2026-04-22 15:21 48.01412 16.62279 2167 ft 136 kts 344°
2026-04-22 15:22 48.02313 16.61898 1989 ft 129 kts 344°
2026-04-22 15:22 48.03156 16.61544 1815 ft 125 kts 345°
2026-04-22 15:22 48.03995 16.61189 1644 ft 125 kts 346°
2026-04-22 15:22 48.04840 16.60840 1454 ft 126 kts 346°
2026-04-22 15:23 48.05691 16.60490 1262 ft 127 kts 345°
2026-04-22 15:23 48.06531 16.60126 1107 ft 123 kts 345°
2026-04-22 15:23 48.07312 16.59786 946 ft 115 kts 347°
2026-04-22 15:23 48.08104 16.59463 809 ft 123 kts 345°
2026-04-22 15:24 48.08937 16.59103 667 ft 120 kts 347°
2026-04-22 15:24 48.09667 16.58797 630 ft 96 kts 342°
2026-04-22 15:24 48.10499 16.58437 830 ft 155 kts 347°
2026-04-22 15:24 48.11646 16.58005 1747 ft 177 kts 347°
2026-04-22 15:25 48.12928 16.57534 3037 ft 202 kts 347°
2026-04-22 15:25 48.14429 16.56990 4069 ft 245 kts 348°
2026-04-22 15:25 48.16127 16.56979 4577 ft 236 kts 13°
2026-04-22 15:25 48.17448 16.58125 4826 ft 214 kts 44°
2026-04-22 15:26 48.18093 16.60089 4973 ft 217 kts 75°
2026-04-22 15:26 48.17947 16.62355 4995 ft 226 kts 109°
2026-04-22 15:26 48.17001 16.64256 5000 ft 231 kts 135°
2026-04-22 15:26 48.15760 16.65767 4995 ft 233 kts 142°
2026-04-22 15:27 48.14418 16.67238 5000 ft 247 kts 141°
2026-04-22 15:27 48.13033 16.68813 4998 ft 249 kts 141°
2026-04-22 15:27 48.11642 16.70358 4997 ft 248 kts 146°
2026-04-22 15:27 48.10101 16.71449 4994 ft 248 kts 163°
2026-04-22 15:28 48.08422 16.72113 4998 ft 250 kts 164°
2026-04-22 15:28 48.06740 16.72825 4996 ft 252 kts 163°
2026-04-22 15:28 48.05054 16.73553 4990 ft 251 kts 163°
2026-04-22 15:28 48.03377 16.74272 4787 ft 249 kts 164°
2026-04-22 15:29 48.01713 16.74974 4529 ft 246 kts 164°
2026-04-22 15:29 48.00082 16.75642 4271 ft 244 kts 164°
2026-04-22 15:29 47.98449 16.76308 4045 ft 241 kts 164°
2026-04-22 15:30 47.95857 16.77365 4000 ft 231 kts 164°
2026-04-22 15:30 47.93789 16.78188 3990 ft 227 kts 164°
2026-04-22 15:30 47.92772 16.78595 3995 ft 228 kts 164°
2026-04-22 15:30 47.90707 16.78827 3994 ft 226 kts 199°
2026-04-22 15:31 47.89384 16.77638 3885 ft 222 kts 232°
2026-04-22 15:31 47.88666 16.75670 3634 ft 214 kts 255°
2026-04-22 15:31 47.88331 16.74295 3469 ft 212 kts 255°
2026-04-22 15:31 47.87830 16.72235 3214 ft 211 kts 255°
2026-04-22 15:32 47.87718 16.70173 3008 ft 192 kts 292°
2026-04-22 15:32 47.88363 16.68576 2989 ft 171 kts 319°
2026-04-22 15:32 47.89334 16.67571 2993 ft 172 kts 335°
2026-04-22 15:32 47.90432 16.66925 2998 ft 170 kts 343°
2026-04-22 15:33 47.91517 16.66443 2996 ft 166 kts 344°
2026-04-22 15:33 47.92646 16.65969 2996 ft 171 kts 344°
2026-04-22 15:33 47.93784 16.65490 3007 ft 167 kts 344°
2026-04-22 15:33 47.94906 16.65016 2998 ft 168 kts 345°
2026-04-22 15:34 47.96027 16.64546 2995 ft 168 kts 345°
2026-04-22 15:34 47.97153 16.64072 2988 ft 169 kts 345°
2026-04-22 15:34 47.98299 16.63590 2840 ft 169 kts 345°
2026-04-22 15:34 47.99398 16.63127 2595 ft 165 kts 345°
2026-04-22 15:35 48.00480 16.62673 2363 ft 151 kts 344°
2026-04-22 15:35 48.01420 16.62275 2168 ft 135 kts 345°
2026-04-22 15:35 48.02332 16.61890 1995 ft 134 kts 345°
2026-04-22 15:35 48.03241 16.61497 1806 ft 141 kts 345°
2026-04-22 15:36 48.04189 16.61089 1620 ft 141 kts 346°
2026-04-22 15:36 48.05123 16.60717 1438 ft 137 kts 346°
2026-04-22 15:36 48.06020 16.60361 1265 ft 133 kts 345°
2026-04-22 15:36 48.06891 16.59960 1066 ft 129 kts 345°
2026-04-22 15:37 48.07727 16.59614 908 ft 122 kts 345°
2026-04-22 15:37 48.08524 16.59273 732 ft 115 kts 346°
2026-04-22 15:37 48.09286 16.58950 625 ft 110 kts 346°
2026-04-22 15:37 48.09859 16.58715 631 ft 63 kts 345°
2026-04-22 15:38 48.10226 16.58559 615 ft 52 kts 345°
2026-04-22 15:38 48.10894 16.58275 617 ft 47 kts 339°
2026-04-22 15:38 48.11057 16.58019 611 ft 25 kts 297°
2026-04-22 15:39 48.11139 16.57778 614 ft 27 kts 296°
2026-04-22 15:39 48.11226 16.57518 622 ft 29 kts 298°
2026-04-22 15:39 48.11317 16.57237 627 ft 31 kts 294°
2026-04-22 15:39 48.11413 16.56928 616 ft 34 kts 298°
2026-04-22 15:40 48.11523 16.56593 613 ft 34 kts 296°
2026-04-22 15:40 48.11611 16.56330 618 ft 29 kts 296°
2026-04-22 15:40 48.11697 16.56065 617 ft 31 kts 297°
2026-04-22 15:40 48.11796 16.55761 616 ft 34 kts 295°
2026-04-22 15:41 48.11888 16.55448 605 ft 31 kts 285°
2026-04-22 15:41 48.11982 16.55153 608 ft 30 kts 295°
2026-04-22 15:41 48.12066 16.54892 613 ft 28 kts 296°
2026-04-22 15:41 48.12124 16.54706 613 ft 14 kts 297°
2026-04-22 15:42 48.12163 16.54593 603 ft 12 kts 297°
2026-04-22 15:42 48.12217 16.54551 600 ft 9 kts 20°
2026-04-22 15:42 48.12245 16.54576 600 ft 1 kts 27°
2026-04-22 15:42 48.12254 16.54583 599 ft 2 kts 26°
2026-04-22 15:43 48.12256 16.54584 599 ft 0 kts 25°